QPF
0.04 0.04 0.03 0.03 0.04 0.05 0.05 0.05 0.05 0.05 0.04 0.05 0.05 0.07 0.08 0.06 0.06 0.06 0.06 0.07 0.08 0.09 0.09 0.09 0.08 0.07 0.06 0.06 0.06 0.05 0.05 0.05 0.05 0.04 0.04 0.04 0.04 0.03 0.02 0.02 0.02 0.02 0.02
0.05 0.03 0.03 0.03 0.03 0.04 0.05 0.05 0.06 0.05 0.05 0.05 0.04 0.04 0.04 0.05 0.05 0.06 0.06 0.05 0.06 0.06 0.07 0.06 0.05 0.04 0.03 0.03 0.04 0.03 0.03 0.03 0.03 0.03 0.02 0.02 0.03 0.03 0.02 0.02 0.01 0.02 0.02
0.06 0.05 0.04 0.03 0.03 0.03 0.05 0.06 0.05 0.05 0.05 0.05 0.04 0.04 0.04 0.04 0.04 0.04 0.05 0.05 0.05 0.05 0.05 0.04 0.03 0.02 0.01 0.01 0.02 0.02 0.02 0.02 0.02 0.02 0.01 0.02 0.02 0.03 0.04 0.02 0.02 0.02 0.02
0.05 0.03 0.03 0.03 0.02 0.02 0.03 0.05 0.05 0.05 0.05 0.04 0.03 0.03 0.04 0.03 0.02 0.03 0.03 0.04 0.05 0.03 0.03 0.02 0.02 0.01 0.01 0.01 0.01 0.02 0.02 0.02 0.02 0.01 0.01 0.01 0.02 0.03 0.05 0.03 0.02 0.03 0.02
0.05 0.02 0.02 0.02 0.03 0.03 0.03 0.04 0.04 0.03 0.02 0.02 0.02 0.03 0.04 0.02 0.01 0.02 0.02 0.03 0.04 0.03 0.03 0.02 0.01 0.01 0.01 0.01 0.01 0.01 0.01 0.02 0.02 0.02 0.02 0.03 0.03 0.04 0.05 0.03 0.02 0.02 0.03
0.04 0.02 0.02 0.01 0.01 0.02 0.02 0.02 0.02 0.02 0.02 0.02 0.03 0.03 0.03 0.02 0.01 0.01 0.02 0.02 0.03 0.02 0.02 0.02 0.01 0.01 0.01 0.01 0.01 0.01 0.02 0.02 0.03 0.03 0.03 0.03 0.03 0.04 0.04 0.03 0.03 0.03 0.05
0.03 0.03 0.02 0.02 0.02 0.02 0.01 0.01 0.01 0.01 0.02 0.02 0.01 0.01 0.03 0.03 0.02 0.02 0.02 0.02 0.02 0.02 0.01 0.01 0.01 0.01 0.01 0.01 0.01 0.02 0.02 0.03 0.03 0.03 0.02 0.02 0.03 0.04 0.04 0.04 0.04 0.05 0.07
0.02 0.02 0.02 0.02 0.02 0.02 0.02 0.01 0.01 0.02 0.02 0.02 0.01 0.01 0.03 0.04 0.03 0.02 0.02 0.02 0.02 0.01 0.01 0.01 0.01 0.01 0.01 0.00 0.00 0.00 0.01 0.01 0.02 0.01 0.02 0.03 0.03 0.03 0.03 0.04 0.04 0.05 0.07
0.02 0.02 0.02 0.02 0.02 0.01 0.01 0.01 0.01 0.01 0.01 0.01 0.01 0.02 0.04 0.05 0.03 0.03 0.02 0.01 0.01 0.01 0.01 0.01 0.01 0.01 0.01 0.01 0.01 0.00 0.01 0.01 0.01 0.02 0.02 0.02 0.02 0.02 0.02 0.03 0.04 0.05 0.06
0.02 0.03 0.03 0.02 0.01 0.01 0.01 0.01 0.01 0.01 0.01 0.01 0.01 0.02 0.03 0.03 0.02 0.02 0.01 0.01 0.01 0.01 0.01 0.01 0.01 0.01 0.01 0.01 0.01 0.01 0.01 0.02 0.02 0.02 0.03 0.02 0.02 0.02 0.02 0.03 0.04 0.05 0.05
0.03 0.02 0.01 0.01 0.01 0.01 0.01 0.02 0.01 0.01 0.01 0.01 0.01 0.01 0.03 0.02 0.01 0.01 0.01 0.01 0.01 0.02 0.02 0.02 0.02 0.02 0.02 0.01 0.01 0.01 0.01 0.02 0.02 0.02 0.02 0.02 0.03 0.03 0.03 0.03 0.03 0.03 0.04
0.03 0.02 0.01 0.01 0.01 0.01 0.02 0.02 0.02 0.01 0.01 0.01 0.01 0.03 0.03 0.02 0.01 0.01 0.01 0.02 0.03 0.03 0.04 0.03 0.02 0.02 0.01 0.01 0.01 0.01 0.01 0.01 0.02 0.02 0.03 0.03 0.04 0.04 0.03 0.03 0.02 0.03 0.04
0.02 0.02 0.02 0.01 0.01 0.01 0.02 0.02 0.01 0.01 0.01 0.01 0.02 0.04 0.04 0.02 0.02 0.03 0.04 0.05 0.04 0.04 0.04 0.03 0.02 0.01 0.01 0.00 0.01 0.01 0.01 0.02 0.01 0.02 0.03 0.03 0.03 0.04 0.03 0.03 0.03 0.04 0.04
0.01 0.01 0.01 0.01 0.01 0.02 0.03 0.03 0.03 0.02 0.01 0.02 0.02 0.03 0.03 0.03 0.03 0.03 0.04 0.03 0.03 0.03 0.03 0.02 0.01 0.01 0.01 0.01 0.01 0.02 0.02 0.01 0.01 0.01 0.02 0.02 0.03 0.03 0.03 0.02 0.02 0.03 0.04
0.01 0.00 0.00 0.01 0.01 0.02 0.02 0.02 0.02 0.02 0.02 0.01 0.01 0.02 0.01 0.02 0.02 0.02 0.02 0.02 0.02 0.02 0.02 0.01 0.01 0.02 0.02 0.01 0.01 0.01 0.02 0.02 0.01 0.01 0.02 0.03 0.04 0.04 0.03 0.03 0.03 0.03 0.04
0.01 0.01 0.01 0.01 0.01 0.01 0.02 0.01 0.01 0.01 0.01 0.01 0.02 0.02 0.01 0.02 0.02 0.02 0.02 0.01 0.01 0.01 0.01 0.02 0.03 0.03 0.03 0.02 0.01 0.01 0.01 0.02 0.01 0.01 0.02 0.03 0.04 0.04 0.04 0.03 0.02 0.03 0.04
0.01 0.01 0.01 0.01 0.02 0.02 0.02 0.02 0.02 0.02 0.02 0.02 0.03 0.03 0.03 0.03 0.02 0.01 0.01 0.00 0.00 0.01 0.01 0.02 0.02 0.02 0.02 0.03 0.03 0.03 0.02 0.02 0.03 0.02 0.02 0.02 0.03 0.03 0.03 0.02 0.02 0.03 0.03
0.02 0.01 0.01 0.02 0.02 0.03 0.03 0.02 0.02 0.01 0.02 0.02 0.02 0.04 0.02 0.01 0.00 0.00 0.00 0.00 0.00 0.01 0.01 0.02 0.02 0.02 0.02 0.03 0.04 0.04 0.04 0.04 0.03 0.03 0.03 0.03 0.03 0.03 0.03 0.03 0.02 0.03 0.03
0.02 0.01 0.02 0.02 0.02 0.02 0.02 0.02 0.01 0.01 0.02 0.03 0.02 0.01 0.01 0.00 0.00 0.00 0.00 0.01 0.01 0.01 0.01 0.01 0.01 0.02 0.02 0.03 0.04 0.03 0.03 0.04 0.04 0.04 0.04 0.04 0.05 0.04 0.04 0.03 0.03 0.02 0.02
0.01 0.01 0.01 0.01 0.01 0.01 0.01 0.02 0.01 0.01 0.02 0.02 0.02 0.01 0.01 0.01 0.01 0.01 0.00 0.01 0.00 0.00 0.00 0.00 0.01 0.01 0.02 0.03 0.03 0.03 0.02 0.03 0.03 0.03 0.03 0.04 0.05 0.05 0.05 0.04 0.04 0.03 0.03
0.01 0.01 0.02 0.02 0.01 0.01 0.01 0.01 0.02 0.03 0.02 0.01 0.01 0.02 0.02 0.01 0.01 0.00 0.00 0.00 0.00 0.00 0.00 0.01 0.02 0.02 0.01 0.01 0.01 0.01 0.01 0.01 0.01 0.01 0.02 0.02 0.03 0.03 0.03 0.02 0.02 0.02 0.03
0.01 0.01 0.02 0.01 0.01 0.02 0.02 0.02 0.02 0.02 0.01 0.01 0.00 0.01 0.01 0.00 0.00 0.00 0.00 0.00 0.01 0.01 0.01 0.02 0.02 0.01 0.00 0.00 0.00 0.00 0.01 0.00 0.00 0.00 0.01 0.01 0.00 0.00 0.01 0.01 0.01 0.01 0.02
0.01 0.01 0.01 0.01 0.01 0.02 0.02 0.03 0.02 0.01 0.01 0.01 0.00 0.00 0.00 0.00 0.00 0.00 0.01 0.01 0.01 0.01 0.01 0.01 0.01 0.00 0.00 0.00 0.00 0.00 0.00 0.00 0.00 0.00 0.00 0.00 0.00 0.00 0.00 0.01 0.01 0.01 0.01
0.01 0.01 0.01 0.01 0.01 0.02 0.03 0.03 0.02 0.02 0.01 0.01 0.01 0.00 0.00 0.00 0.00 0.00 0.00 0.01 0.01 0.01 0.01 0.00 0.00 0.00 0.00 0.00 0.00 0.00 0.00 0.00 0.00 0.00 0.00 0.01 0.01 0.01 0.00 0.01 0.01 0.01 0.01
0.02 0.01 0.01 0.01 0.01 0.02 0.03 0.02 0.02 0.02 0.01 0.00 0.00 0.00 0.01 0.01 0.01 0.00 0.00 0.01 0.01 0.01 0.01 0.01 0.01 0.01 0.01 0.00 0.00 0.00 0.00 0.00 0.00 0.00 0.01 0.01 0.01 0.01 0.01 0.01 0.01 0.01 0.01
0.01 0.01 0.01 0.01 0.01 0.02 0.03 0.02 0.02 0.02 0.01 0.00 0.00 0.01 0.01 0.01 0.01 0.00 0.01 0.01 0.01 0.01 0.01 0.01 0.01 0.01 0.01 0.01 0.00 0.00 0.00 0.00 0.01 0.01 0.01 0.01 0.01 0.01 0.01 0.01 0.01 0.01 0.01
MSLP
1011.07 1010.52 1010.00 1009.49 1009.02 1008.57 1008.16 1007.79 1007.46 1007.18 1006.95 1006.75 1006.60 1006.47 1006.38 1006.33 1006.30 1006.30 1006.33 1006.39 1006.46 1006.54 1006.61 1006.66 1006.68 1006.66 1006.60 1006.50 1006.37 1006.22 1006.07 1005.90 1005.75 1005.59 1005.45 1005.32 1005.20 1005.10 1005.01 1004.95 1004.91 1004.91 1004.93
1010.91 1010.35 1009.83 1009.33 1008.88 1008.46 1008.09 1007.76 1007.48 1007.24 1007.04 1006.88 1006.75 1006.66 1006.59 1006.55 1006.54 1006.55 1006.58 1006.63 1006.68 1006.74 1006.78 1006.80 1006.80 1006.76 1006.69 1006.59 1006.47 1006.32 1006.17 1006.00 1005.83 1005.65 1005.46 1005.27 1005.08 1004.91 1004.74 1004.61 1004.51 1004.45 1004.45
1010.81 1010.24 1009.71 1009.22 1008.78 1008.39 1008.06 1007.78 1007.55 1007.36 1007.21 1007.09 1007.01 1006.94 1006.90 1006.87 1006.86 1006.86 1006.87 1006.89 1006.90 1006.92 1006.92 1006.90 1006.87 1006.81 1006.73 1006.63 1006.51 1006.37 1006.22 1006.04 1005.85 1005.64 1005.41 1005.17 1004.92 1004.67 1004.44 1004.25 1004.09 1003.98 1003.94
1010.78 1010.19 1009.66 1009.17 1008.74 1008.38 1008.09 1007.85 1007.66 1007.52 1007.42 1007.36 1007.31 1007.27 1007.24 1007.21 1007.18 1007.15 1007.12 1007.09 1007.05 1007.01 1006.96 1006.91 1006.84 1006.76 1006.68 1006.58 1006.46 1006.33 1006.18 1006.00 1005.79 1005.56 1005.29 1005.00 1004.70 1004.41 1004.12 1003.87 1003.67 1003.52 1003.43
1010.80 1010.21 1009.67 1009.18 1008.77 1008.42 1008.15 1007.94 1007.79 1007.69 1007.62 1007.59 1007.56 1007.53 1007.50 1007.46 1007.40 1007.33 1007.24 1007.15 1007.05 1006.95 1006.85 1006.75 1006.66 1006.57 1006.49 1006.39 1006.29 1006.17 1006.02 1005.84 1005.62 1005.36 1005.07 1004.75 1004.42 1004.09 1003.78 1003.49 1003.25 1003.06 1002.93
1010.84 1010.26 1009.71 1009.23 1008.81 1008.47 1008.20 1008.00 1007.86 1007.78 1007.73 1007.70 1007.68 1007.65 1007.61 1007.54 1007.44 1007.32 1007.17 1007.02 1006.86 1006.70 1006.56 1006.43 1006.32 1006.23 1006.14 1006.06 1005.97 1005.86 1005.72 1005.53 1005.31 1005.04 1004.73 1004.40 1004.05 1003.70 1003.37 1003.07 1002.82 1002.60 1002.44
1010.85 1010.28 1009.74 1009.25 1008.83 1008.47 1008.19 1007.98 1007.83 1007.74 1007.68 1007.64 1007.61 1007.57 1007.50 1007.39 1007.26 1007.09 1006.90 1006.69 1006.48 1006.28 1006.11 1005.96 1005.84 1005.75 1005.67 1005.60 1005.52 1005.41 1005.27 1005.08 1004.85 1004.57 1004.25 1003.90 1003.55 1003.21 1002.88 1002.59 1002.33 1002.11 1001.92
1010.79 1010.24 1009.70 1009.21 1008.76 1008.38 1008.07 1007.83 1007.65 1007.52 1007.44 1007.38 1007.32 1007.26 1007.17 1007.04 1006.87 1006.67 1006.45 1006.20 1005.96 1005.74 1005.55 1005.39 1005.27 1005.18 1005.11 1005.04 1004.96 1004.85 1004.70 1004.50 1004.24 1003.95 1003.61 1003.26 1002.91 1002.58 1002.27 1001.99 1001.76 1001.54 1001.36
1010.63 1010.09 1009.56 1009.05 1008.59 1008.17 1007.82 1007.53 1007.31 1007.14 1007.02 1006.94 1006.86 1006.78 1006.67 1006.53 1006.36 1006.14 1005.90 1005.65 1005.39 1005.16 1004.96 1004.80 1004.67 1004.58 1004.50 1004.43 1004.34 1004.21 1004.03 1003.80 1003.52 1003.19 1002.84 1002.47 1002.12 1001.80 1001.52 1001.27 1001.06 1000.88 1000.72
1010.36 1009.83 1009.30 1008.78 1008.29 1007.84 1007.44 1007.10 1006.84 1006.63 1006.49 1006.38 1006.30 1006.21 1006.11 1005.98 1005.81 1005.60 1005.36 1005.10 1004.85 1004.61 1004.40 1004.23 1004.09 1003.98 1003.89 1003.79 1003.67 1003.51 1003.29 1003.02 1002.69 1002.33 1001.95 1001.56 1001.21 1000.90 1000.63 1000.42 1000.25 1000.12 999.99
1010.00 1009.47 1008.94 1008.41 1007.88 1007.40 1006.96 1006.59 1006.29 1006.06 1005.90 1005.79 1005.71 1005.64 1005.56 1005.45 1005.30 1005.11 1004.88 1004.63 1004.37 1004.12 1003.90 1003.70 1003.54 1003.41 1003.28 1003.15 1002.98 1002.77 1002.51 1002.18 1001.81 1001.40 1000.98 1000.57 1000.21 999.90 999.65 999.47 999.34 999.25 999.18
1009.57 1009.05 1008.50 1007.95 1007.40 1006.89 1006.42 1006.02 1005.70 1005.47 1005.31 1005.22 1005.16 1005.13 1005.08 1005.00 1004.87 1004.70 1004.48 1004.22 1003.95 1003.69 1003.43 1003.21 1003.01 1002.84 1002.67 1002.49 1002.27 1002.01 1001.69 1001.32 1000.89 1000.44 999.98 999.55 999.17 998.85 998.61 998.45 998.36 998.31 998.28
1009.11 1008.58 1008.02 1007.44 1006.87 1006.34 1005.85 1005.45 1005.13 1004.90 1004.77 1004.70 1004.68 1004.68 1004.66 1004.61 1004.51 1004.34 1004.12 1003.86 1003.56 1003.26 1002.97 1002.70 1002.45 1002.23 1002.01 1001.79 1001.53 1001.22 1000.86 1000.45 999.99 999.50 999.01 998.55 998.15 997.82 997.58 997.43 997.35 997.33 997.34
1008.65 1008.09 1007.51 1006.92 1006.33 1005.78 1005.29 1004.88 1004.57 1004.37 1004.26 1004.22 1004.24 1004.27 1004.28 1004.24 1004.15 1003.98 1003.74 1003.44 1003.11 1002.77 1002.43 1002.11 1001.82 1001.56 1001.30 1001.04 1000.76 1000.43 1000.05 999.61 999.13 998.62 998.12 997.64 997.21 996.87 996.61 996.45 996.36 996.34 996.36
1008.20 1007.62 1007.01 1006.39 1005.78 1005.22 1004.73 1004.33 1004.03 1003.84 1003.75 1003.74 1003.78 1003.82 1003.84 1003.81 1003.70 1003.51 1003.24 1002.91 1002.54 1002.15 1001.77 1001.42 1001.10 1000.81 1000.53 1000.27 999.98 999.65 999.27 998.84 998.36 997.86 997.34 996.85 996.40 996.03 995.75 995.55 995.43 995.38 995.38
1007.75 1007.15 1006.52 1005.87 1005.25 1004.67 1004.17 1003.77 1003.47 1003.29 1003.21 1003.20 1003.23 1003.27 1003.28 1003.23 1003.09 1002.87 1002.57 1002.21 1001.80 1001.39 1000.99 1000.62 1000.29 1000.01 999.75 999.50 999.24 998.94 998.59 998.19 997.73 997.24 996.73 996.23 995.77 995.36 995.03 994.78 994.61 994.51 994.45
1007.32 1006.69 1006.04 1005.37 1004.72 1004.13 1003.61 1003.19 1002.88 1002.68 1002.58 1002.55 1002.56 1002.57 1002.54 1002.46 1002.29 1002.04 1001.71 1001.33 1000.91 1000.50 1000.11 999.77 999.47 999.22 999.01 998.81 998.60 998.35 998.05 997.69 997.27 996.80 996.30 995.80 995.31 994.87 994.49 994.18 993.94 993.75 993.60
1006.89 1006.25 1005.57 1004.88 1004.21 1003.59 1003.04 1002.59 1002.24 1002.00 1001.86 1001.78 1001.74 1001.70 1001.63 1001.50 1001.31 1001.04 1000.71 1000.33 999.95 999.57 999.23 998.94 998.71 998.54 998.39 998.27 998.12 997.94 997.70 997.38 997.00 996.56 996.07 995.56 995.06 994.58 994.15 993.77 993.44 993.16 992.91
1006.48 1005.82 1005.13 1004.42 1003.71 1003.06 1002.47 1001.97 1001.57 1001.27 1001.06 1000.92 1000.81 1000.72 1000.60 1000.44 1000.23 999.96 999.66 999.32 999.00 998.69 998.44 998.24 998.11 998.02 997.97 997.92 997.85 997.73 997.54 997.27 996.92 996.50 996.02 995.52 995.00 994.49 994.01 993.57 993.16 992.78 992.43
1006.07 1005.41 1004.71 1003.97 1003.24 1002.54 1001.90 1001.34 1000.88 1000.51 1000.22 1000.01 999.85 999.70 999.54 999.37 999.16 998.92 998.67 998.41 998.17 997.98 997.83 997.75 997.72 997.73 997.77 997.79 997.78 997.71 997.57 997.33 997.01 996.60 996.14 995.63 995.11 994.59 994.08 993.59 993.12 992.66 992.21
1005.69 1005.02 1004.31 1003.55 1002.79 1002.05 1001.36 1000.74 1000.21 999.77 999.42 999.14 998.92 998.74 998.56 998.39 998.22 998.03 997.86 997.70 997.57 997.49 997.46 997.49 997.57 997.67 997.78 997.86 997.89 997.86 997.73 997.51 997.20 996.81 996.36 995.87 995.36 994.84 994.32 993.81 993.30 992.78 992.25
1005.31 1004.65 1003.92 1003.15 1002.36 1001.58 1000.84 1000.18 999.59 999.10 998.70 998.38 998.13 997.93 997.76 997.62 997.49 997.38 997.30 997.24 997.23 997.26 997.34 997.47 997.62 997.79 997.94 998.06 998.10 998.07 997.95 997.74 997.43 997.06 996.63 996.16 995.67 995.18 994.68 994.17 993.65 993.10 992.52
1004.93 1004.26 1003.52 1002.73 1001.92 1001.12 1000.35 999.66 999.05 998.53 998.11 997.78 997.53 997.35 997.21 997.12 997.06 997.03 997.04 997.08 997.16 997.28 997.44 997.63 997.83 998.02 998.18 998.29 998.33 998.28 998.14 997.92 997.62 997.26 996.85 996.42 995.97 995.52 995.06 994.59 994.09 993.54 992.93
1004.51 1003.83 1003.07 1002.27 1001.45 1000.64 999.87 999.18 998.57 998.07 997.67 997.36 997.15 997.02 996.94 996.91 996.92 996.97 997.05 997.16 997.31 997.48 997.68 997.89 998.09 998.27 998.40 998.48 998.47 998.39 998.22 997.98 997.68 997.32 996.95 996.55 996.16 995.76 995.36 994.93 994.46 993.93 993.31
1004.03 1003.32 1002.55 1001.74 1000.92 1000.13 999.39 998.73 998.17 997.71 997.37 997.13 996.99 996.93 996.93 996.97 997.05 997.16 997.30 997.45 997.62 997.81 997.99 998.18 998.34 998.46 998.54 998.55 998.49 998.35 998.14 997.87 997.56 997.21 996.85 996.50 996.14 995.79 995.44 995.05 994.62 994.11 993.51
1003.45 1002.72 1001.93 1001.13 1000.33 999.58 998.89 998.30 997.82 997.46 997.21 997.07 997.02 997.05 997.13 997.25 997.39 997.55 997.71 997.87 998.03 998.18 998.32 998.44 998.53 998.57 998.57 998.49 998.35 998.15 997.89 997.58 997.24 996.89 996.53 996.19 995.85 995.53 995.20 994.84 994.43 993.95 993.35
Thickness
5652 5649 5647 5645 5643 5640 5638 5637 5635 5634 5633 5632 5631 5630 5630 5630 5629 5627 5628 5626 5624 5622 5620 5619 5617 5614 5613 5612 5612 5610 5608 5605 5604 5606 5607 5608 5605 5603 5604 5604 5605 5607 5609
5649 5646 5643 5641 5638 5636 5634 5633 5631 5630 5630 5629 5628 5627 5627 5626 5625 5623 5622 5622 5620 5617 5615 5613 5611 5610 5607 5606 5604 5603 5602 5600 5599 5598 5599 5601 5599 5598 5598 5597 5600 5602 5603
5648 5644 5641 5638 5635 5632 5630 5629 5628 5627 5627 5626 5625 5624 5623 5622 5621 5619 5618 5617 5615 5613 5611 5608 5606 5604 5601 5600 5598 5598 5597 5597 5595 5594 5594 5595 5595 5594 5592 5593 5594 5594 5597
5646 5642 5638 5635 5632 5630 5629 5628 5626 5625 5624 5623 5622 5621 5620 5619 5617 5615 5613 5612 5610 5608 5607 5604 5602 5600 5597 5595 5594 5592 5591 5590 5590 5590 5590 5590 5590 5589 5587 5587 5588 5589 5590
5644 5641 5637 5634 5632 5630 5629 5627 5625 5623 5623 5621 5620 5618 5616 5615 5613 5609 5608 5608 5606 5605 5603 5601 5599 5595 5591 5588 5588 5587 5586 5585 5586 5586 5586 5586 5585 5583 5582 5582 5581 5582 5584
5642 5639 5636 5633 5631 5629 5627 5625 5623 5622 5620 5619 5617 5615 5613 5612 5605 5601 5600 5602 5603 5602 5600 5598 5596 5593 5588 5584 5581 5579 5578 5578 5579 5578 5579 5579 5577 5577 5576 5575 5576 5577 5577
5640 5637 5634 5632 5631 5628 5627 5624 5622 5619 5618 5616 5614 5613 5610 5606 5601 5598 5596 5598 5600 5599 5596 5594 5593 5592 5586 5584 5581 5577 5575 5571 5568 5569 5571 5571 5570 5570 5568 5568 5569 5569 5568
5638 5635 5634 5631 5630 5627 5625 5622 5620 5617 5615 5614 5612 5611 5608 5604 5599 5596 5594 5597 5598 5596 5593 5591 5588 5585 5582 5578 5578 5577 5576 5573 5569 5566 5565 5563 5563 5561 5560 5560 5561 5562 5564
5637 5634 5633 5631 5629 5626 5624 5621 5618 5616 5614 5613 5611 5609 5606 5603 5598 5595 5592 5597 5596 5594 5592 5588 5585 5582 5575 5571 5573 5573 5572 5570 5566 5562 5558 5556 5553 5552 5551 5553 5556 5557 5559
5636 5634 5633 5630 5627 5625 5622 5620 5618 5616 5615 5613 5611 5609 5606 5603 5597 5594 5590 5596 5595 5594 5591 5588 5580 5576 5571 5568 5569 5569 5567 5565 5563 5562 5557 5554 5553 5551 5547 5546 5549 5550 5552
5636 5634 5632 5630 5627 5624 5621 5619 5618 5617 5615 5612 5610 5608 5606 5601 5597 5592 5589 5591 5592 5592 5591 5589 5583 5573 5569 5566 5563 5563 5560 5557 5558 5558 5557 5555 5552 5549 5547 5544 5542 5542 5543
5636 5633 5631 5629 5627 5625 5621 5619 5618 5616 5614 5612 5610 5609 5608 5604 5598 5593 5589 5586 5585 5588 5587 5585 5580 5571 5567 5564 5562 5558 5555 5552 5557 5556 5553 5551 5548 5545 5542 5539 5537 5536 5536
5634 5633 5631 5629 5627 5625 5622 5621 5620 5617 5617 5616 5613 5611 5609 5606 5601 5593 5590 5587 5585 5584 5583 5577 5573 5569 5567 5566 5561 5557 5555 5556 5554 5551 5548 5545 5543 5539 5537 5535 5534 5532 5531
5634 5632 5631 5629 5628 5626 5625 5624 5622 5620 5618 5616 5614 5612 5609 5607 5602 5598 5595 5592 5586 5584 5582 5578 5573 5569 5567 5564 5562 5559 5556 5552 5548 5546 5543 5541 5539 5536 5534 5532 5530 5529 5528
5634 5633 5632 5632 5630 5627 5625 5621 5621 5617 5615 5613 5613 5611 5608 5605 5597 5589 5589 5591 5588 5584 5581 5581 5579 5576 5572 5567 5564 5559 5554 5550 5546 5542 5539 5536 5534 5532 5530 5528 5526 5525 5524
5633 5633 5634 5634 5631 5630 5627 5624 5617 5616 5612 5609 5605 5603 5603 5597 5592 5589 5586 5583 5581 5578 5580 5582 5578 5574 5570 5566 5561 5557 5552 5547 5542 5538 5535 5532 5529 5527 5526 5525 5523 5521 5519
5633 5633 5635 5634 5633 5631 5630 5628 5625 5619 5613 5609 5606 5602 5599 5595 5593 5589 5586 5583 5581 5578 5581 5580 5575 5571 5567 5563 5558 5554 5548 5543 5538 5534 5531 5528 5525 5523 5522 5520 5519 5517 5516
5634 5633 5633 5633 5633 5632 5631 5631 5630 5627 5624 5620 5611 5604 5600 5597 5593 5590 5587 5586 5588 5584 5582 5578 5573 5568 5564 5559 5554 5549 5544 5539 5535 5531 5527 5524 5521 5519 5517 5515 5514 5512 5511
5635 5635 5634 5634 5634 5634 5633 5633 5632 5629 5627 5624 5621 5613 5604 5600 5595 5592 5589 5592 5591 5587 5582 5576 5571 5565 5560 5555 5550 5545 5540 5535 5530 5526 5523 5519 5516 5514 5512 5510 5509 5506 5504
5634 5631 5630 5633 5634 5635 5634 5633 5632 5631 5629 5626 5623 5619 5614 5609 5606 5600 5595 5593 5590 5585 5580 5574 5568 5562 5557 5552 5547 5542 5538 5533 5528 5524 5520 5516 5513 5510 5508 5506 5505 5504 5503
5635 5633 5628 5632 5635 5635 5635 5634 5634 5632 5630 5628 5624 5618 5609 5612 5608 5602 5598 5592 5587 5582 5577 5572 5567 5561 5555 5550 5545 5540 5535 5531 5525 5521 5517 5513 5510 5507 5505 5503 5501 5499 5498
5635 5635 5634 5634 5634 5634 5634 5635 5635 5634 5632 5628 5626 5621 5610 5611 5608 5603 5597 5591 5586 5580 5574 5569 5565 5559 5553 5547 5541 5537 5532 5527 5522 5517 5513 5511 5508 5505 5502 5499 5497 5495 5493
5634 5635 5635 5635 5635 5632 5634 5636 5635 5634 5632 5629 5626 5622 5617 5612 5608 5602 5596 5590 5584 5578 5573 5567 5562 5557 5550 5543 5538 5533 5528 5522 5517 5513 5509 5507 5505 5502 5499 5495 5493 5491 5488
5633 5634 5634 5635 5635 5636 5636 5636 5635 5634 5632 5629 5626 5622 5618 5612 5607 5601 5596 5589 5583 5577 5571 5566 5559 5553 5546 5540 5535 5530 5522 5515 5510 5509 5506 5504 5501 5498 5495 5492 5489 5487 5484
5633 5633 5633 5634 5635 5635 5636 5636 5635 5633 5630 5628 5625 5621 5618 5613 5606 5600 5594 5589 5582 5577 5570 5564 5558 5552 5545 5538 5532 5525 5516 5511 5507 5503 5502 5502 5498 5494 5491 5488 5485 5482 5479
5633 5633 5633 5634 5635 5635 5635 5635 5634 5632 5630 5627 5624 5621 5616 5611 5606 5599 5593 5588 5582 5576 5569 5563 5556 5550 5543 5537 5529 5521 5515 5510 5506 5501 5499 5499 5496 5491 5488 5485 5481 5479 5474